North Canton, OH

6:06 AM EDT on July 30, 2016 (GMT -0400)
Akron-Canton Regional

Weather History for KCAK - January, 2013

Change the Weather History Date:

Saturday, January 12, 2013

  Actual Average Record
Temperature  
Mean Temperature 55 °F 26 °F  
Max Temperature 60 °F 33 °F 64 °F (1916)
Min Temperature 49 °F 19 °F -7 °F (1918)
Degree Days  
Heating Degree Days 10 39  
Month to date heating degree days 402 466  
Since 1 July heating degree days 2548 2796  
Cooling Degree Days 0 0  
Month to date cooling degree days 0 0  
Year to date cooling degree days 0 0  
Growing Degree Days 3 (Base 50)    
Moisture  
Dew Point 52 °F    
Average Humidity 87    
Maximum Humidity 96    
Minimum Humidity 78    
Precipitation  
Precipitation T in 0.08 in 1.01 in (1960)
Month to date precipitation 0.43 1.04  
Year to date precipitation 0.43 1.04  
Snow  
Snow 0.00 in 0.40 in - ()
Month to date snowfall 0.4 4.7  
Since 1 July snowfall 14.7 18.3  
Snow Depth 0.00 in    
Sea Level Pressure  
Sea Level Pressure 29.99 in    
Wind  
Wind Speed 10 mph (SSW)    
Max Wind Speed 17 mph    
Max Gust Speed 23 mph    
Visibility 5 miles    
Events Fog , Rain    
T = Trace of Precipitation, MM = Missing Value Source: NWS Daily Summary

Daily Weather History Graph

Daily Weather History Graph

Search for Another Location

Airport or City:

Trip Planner

Search our weather history database for the weather conditions in past years. The results will help you decide how hot, cold, wet, or windy it might be!

Date:

Astronomy

Jan. 12, 2013 Rise Set
Actual Time 7:49 AM EST 5:19 PM EST
Civil Twilight 7:18 AM EST 5:49 PM EST
Nautical Twilight 6:44 AM EST 6:23 PM EST
Astronomical Twilight 6:11 AM EST 6:56 PM EST
Moon 8:06 AM EST (1/12) 6:47 PM EST (1/12)
Length of Visible Light 10h 31m
Length of Day
9h 30m
New Moon, 1% of the Moon is Illuminated
Jan 12
New Moon
Jan 18
First Quarter
Jan 26
Full
Feb 3
Last Quarter
Feb 10
New

Hourly Weather History & Observations

Time (EST) Temp. Dew Point Humidity Pressure Visibility Wind Dir Wind Speed Gust Speed Precip Events Conditions
12:11 AM 50.0 °F 48.2 °F 94% 29.95 in 5.0 mi South 11.5 mph - N/A   Mostly Cloudy
12:48 AM 50.0 °F 48.2 °F 94% 29.95 in 2.0 mi SSW 6.9 mph - N/A   Mostly Cloudy
12:51 AM 50.0 °F 48.0 °F 93% 29.96 in 2.0 mi South 6.9 mph - N/A   Mostly Cloudy
1:32 AM 50.0 °F 48.2 °F 94% 29.96 in 0.5 mi SSW 6.9 mph - N/A Fog Fog
1:51 AM 50.0 °F 48.9 °F 96% 29.97 in 0.2 mi South 8.1 mph - N/A Fog Fog
2:51 AM 50.0 °F 48.9 °F 96% 29.99 in 0.2 mi South 9.2 mph - N/A Fog Fog
3:51 AM 51.8 °F 50.0 °F 94% 29.98 in 0.2 mi South 9.2 mph - N/A Fog Fog
4:51 AM 53.1 °F 51.1 °F 93% 29.99 in 0.2 mi SSW 11.5 mph - N/A Fog Fog
5:38 AM 53.6 °F 51.8 °F 94% 29.98 in 4.0 mi SSW 10.4 mph - N/A   Overcast
5:51 AM 53.1 °F 51.1 °F 93% 29.99 in 4.0 mi SSW 10.4 mph - N/A   Overcast
6:51 AM 53.6 °F 51.8 °F 94% 29.99 in 4.0 mi SSW 11.5 mph - N/A   Overcast
7:31 AM 51.8 °F 51.8 °F 100% 30.00 in 4.0 mi SW 8.1 mph - N/A   Mostly Cloudy
7:51 AM 51.8 °F 50.0 °F 94% 30.01 in 4.0 mi SSW 9.2 mph - N/A   Mostly Cloudy
8:08 AM 53.6 °F 51.8 °F 94% 30.02 in 4.0 mi SSW 11.5 mph - N/A   Overcast
8:51 AM 53.6 °F 51.8 °F 94% 30.03 in 4.0 mi SSW 13.8 mph - N/A   Mostly Cloudy
9:51 AM 55.9 °F 53.1 °F 90% 30.04 in 4.0 mi SSW 16.1 mph - N/A   Mostly Cloudy
10:51 AM 57.0 °F 53.1 °F 87% 30.05 in 6.0 mi SW 12.7 mph - N/A   Overcast
11:51 AM 57.9 °F 53.1 °F 84% 30.03 in 7.0 mi SW 11.5 mph - N/A   Overcast
12:51 PM 59.0 °F 53.1 °F 81% 30.01 in 8.0 mi SW 10.4 mph - N/A   Mostly Cloudy
1:51 PM 59.0 °F 53.1 °F 81% 30.01 in 8.0 mi SW 9.2 mph - N/A   Overcast
2:51 PM 60.1 °F 53.1 °F 78% 30.01 in 8.0 mi SSW 8.1 mph - N/A   Overcast
3:51 PM 60.1 °F 53.1 °F 78% 30.02 in 10.0 mi SSW 11.5 mph - N/A   Overcast
4:51 PM 57.9 °F 53.1 °F 84% 30.01 in 7.0 mi South 9.2 mph - N/A   Overcast
5:51 PM 57.0 °F 52.0 °F 83% 30.00 in 7.0 mi South 9.2 mph - N/A   Mostly Cloudy
6:51 PM 55.0 °F 52.0 °F 89% 29.98 in 7.0 mi SSE 8.1 mph - N/A   Overcast
7:51 PM 55.9 °F 53.1 °F 90% 29.98 in 7.0 mi SSE 6.9 mph - N/A   Overcast
8:51 PM 57.0 °F 54.0 °F 89% 29.96 in 7.0 mi SSE 5.8 mph - N/A   Overcast
9:51 PM 57.0 °F 54.0 °F 89% 29.93 in 7.0 mi SSE 5.8 mph - 0.00 in Rain Light Rain
10:51 PM 57.9 °F 55.0 °F 90% 29.91 in 6.0 mi SSE 9.2 mph - 0.00 in   Overcast
11:51 PM 60.1 °F 55.9 °F 86% 29.88 in 7.0 mi SSE 13.8 mph - N/A   Overcast